Weather Roundup
Issued by NWS

Home | Current Version | Previous Version | Text Only | Print | Product List | Glossary On
Versions: 1 2 3 4 5 6 7 8 9 10 11 12 13 14 15 16 17 18 19 20 21 22 23 24 25 26 27 28 29 30 31 32 33 34 35 36 37 38 39 40 41 42 43 44 45 46 47 48 49 50
000
NZUS93 KARX 060659
HRRWXR

CURRENT HOURLY OBSERVATIONS ACROSS
MUCH OF THE UPPER MISSISSIPPI VALLEY
NATIONAL WEATHER SERVICE LA CROSSE WI
200 AM CDT WED MAY 06 2015


...SOUTHEAST MINNESOTA...


CITY           SKY/WX    TMP DP  RH WIND       PRES   REMARKS
ROCHESTER      FOG       53  53 100 SE15      30.12F VSB 1/2
ROCHESTER/MAYO CLOUDY    53  53 100 SE10      30.12F VSB 3/4
WINONA         CLOUDY    54  52  94 SE7       30.15F
AUSTIN         FOG       54  54 100 SE9       30.10F VSB 1/4
ALBERT LEA     FOG       55  55 100 SE13      30.09F VSB 1/4
DODGE CENTER   FOG       54  54 100 SE14      30.11F VSB 1/4
PRESTON        FOG       53  52  97 SE8       30.14F VSB 1/4
OWATONNA       CLOUDY    54  52  94 SE14      30.09F FOG
FARIBAULT      CLOUDY    54  54 100 SE10      30.10F FOG
$$

...ELSEWHERE IN MINNESOTA...


CITY           SKY/WX    TMP DP  RH WIND       PRES   REMARKS
MINNEAPOLIS    CLOUDY    56  54  93 SE12      30.11F FOG
INTNL FALLS    CLEAR     48  29  47 SE5       30.10S
DULUTH         CLOUDY    49  28  44 E10       30.15S
RED WING       CLOUDY    55  54  94 SE7       30.12F
REDWOOD FALLS  CLOUDY    56  54  93 SE14      30.05S FOG
MANKATO        CLOUDY    55  54  94 SE12      30.08F
WORTHINGTON    CLOUDY    57  55  94 SE15      30.02F VSB 1/2
FAIRMONT       CLOUDY    55  52  88 SE16      30.05F VSB 3/4
$$

...SOUTHWEST WISCONSIN...


CITY           SKY/WX    TMP DP  RH WIND       PRES   REMARKS
LA CROSSE      CLOUDY    56  52  86 E6        30.15F
PRAIRIE DU CHI CLOUDY    55  52  90 E7        30.15F
BOSCOBEL       CLOUDY    55  52  89 NE3       30.17F FOG
LONE ROCK      NOT AVBL
PLATTEVILLE    CLOUDY    52  51  97 E12       30.17F
FORT MC COY    CLOUDY    53  51  92 E3        30.18F
CAMP DOUGLAS   CLOUDY    52  52 100 SE7       30.17F
VIROQUA        CLOUDY    52  52 100 SE9       30.17S
WIS DELLS      NOT AVBL
$$

...ELSEWHERE IN WISCONSIN...


CITY           SKY/WX    TMP DP  RH WIND       PRES   REMARKS
MILWAUKEE      CLOUDY    46  35  65 CALM      30.23F
MADISON        CLOUDY    51  49  92 SE12      30.19F FOG
GREEN BAY      CLOUDY    53  41  63 CALM      30.23F
EAU CLAIRE     NOT AVBL
BLACK RVR FLS  CLOUDY    53  53 100 CALM      30.18F
MEDFORD        CLOUDY    51  39  63 SE9       30.21F
WAUSAU         LGT RAIN  50  39  66 E7        30.21F
WIS RAPIDS     LGT RAIN  51  46  83 E5        30.22F
MARSHFIELD     LGT RAIN  52  45  77 E9        30.21F
RICE LAKE      CLOUDY    54  46  74 SE12G17   30.18F
$$

...NORTHEAST IOWA...


CITY           SKY/WX    TMP DP  RH WIND       PRES   REMARKS
DECORAH        FOG       55  55 100 E8        30.13F VSB 1
MASON CITY     FOG       56  56 100 SE15      30.10F VSB 1/4
CHARLES CITY   FOG       55  55 100 SE13      30.12F VSB 1/4
OELWEIN        FOG       55  55 100 E10       30.13F VSB 1/4
$$

...ELSEWHERE IN IOWA...


CITY           SKY/WX    TMP DP  RH WIND       PRES   REMARKS
DES MOINES     MOCLDY    67  63  87 SE9       30.03F FOG
IOWA CITY      CLOUDY    60  59  96 E9        30.12F FOG
FORT DODGE     CLOUDY    63  59  88 SE13G18   30.05F
$$

...NORTHERN ILLINOIS...


CITY           SKY/WX    TMP DP  RH WIND       PRES   REMARKS
CHICAGO-OHARE  CLOUDY    46  46 100 NE6       30.19F FOG
CHICAGO-MIDWAY CLOUDY    52  49  89 N5        30.19F FOG
MOLINE         CLOUDY    57  53  86 E9        30.13F FOG
ROCKFORD       FOG       51  49  92 E8        30.22S VSB 1/2
PEORIA         PTCLDY    63  59  87 E7        30.14F FOG
$$

NOTE: "FAIR" INDICATES FEW OR NO CLOUDS BELOW 12,000 FEET WITH NO
SIGNIFICANT WEATHER AND/OR OBSTRUCTIONS TO VISIBILITY. WIND
SPEEDS ARE IN MILES-PER-HOUR.



USA.gov is the U.S. government's official web portal to all federal, state and local government web resources and services.